Flag for U.S.A. Weather past 2 weeks in West Covina, California, U.S.A.

Now
70 °F

Sunny.


Feels Like: 76 °F
Forecast: 50 / 75 °F
Wind: 6 mph from Southwest

Location: Fullerton Municipal Airport

Current Time: Dec 22, 2014 at 4:12:53 PM

Latest Report: Dec 22, 2014 at 3:53 PM


Visibility: 6 mi

Pressure: 29.93 "Hg

Humidity: 57%

Dew point: 54 °F

Location of West CovinaLocation

Historic Weather in West Covina — Graph

°F

West Covina temperature yesterday

Maximum temperature yesterday: 68 °F (at 1:53 PM)
Minimum temperature yesterday: 51 °F (at 4:53 AM)
Average temperature yesterday: 58 °F

Past Weeks' High & Low Weather Summary

 TemperatureHumidityPressure
High80 °F (Dec 8, 1:53 PM)93% (Dec 9, 8:00 AM)30.23 "Hg (Dec 9, 8:00 AM)
Low47 °F (Dec 14, 5:53 AM)26% (Dec 8, 1:53 PM)29.82 "Hg (Dec 12, 3:53 AM)
Average59 °F72%30.05 "Hg
* Reported Dec 7 1:53 PM — Dec 22 1:53 PM, West Covina, Weather by CustomWeather, © 2014

Note: Actual official high and low records may vary slightly from our data, if they occured in-between our weather recording intervals... More about our weather records

Advertising

West Covina weather history for previous 24 hours

 ConditionsComfort  
Time TempWeatherWind HumidityBarometerVisibility
1:53 PM
Dec 22
75 °FSunny.3 mph40%29.94 "Hg9 mi
12:53 PM74 °FSunny.No wind40%29.96 "Hg9 mi
11:53 AM70 °FSunny.No wind49%29.98 "Hg7 mi
10:53 AM68 °FSunny.No wind53%30.02 "Hg7 mi
9:53 AM64 °FSunny.No wind63%30.04 "Hg6 mi
8:53 AM59 °FSunny.No wind72%30.04 "Hg5 mi
7:53 AM52 °FFog.No wind86%30.03 "Hg3 mi
6:53 AM49 °FFog.No wind90%30.03 "Hg2 mi
5:53 AM49 °FFog.No wind90%30.02 "Hg3 mi
4:53 AM50 °FFog.No wind89%30.02 "Hg3 mi
3:53 AM51 °FFog.No wind89%30.02 "Hg3 mi
2:53 AM51 °FFog.No wind89%30.03 "Hg3 mi
1:53 AM52 °FFog.3 mph89%30.02 "Hg3 mi
12:53 AM53 °FFog.3 mph89%30.02 "Hg4 mi
11:53 PM
Dec 21
54 °FFog.No wind90%30.04 "Hg4 mi
10:53 PM55 °FFog.No wind90%30.05 "Hg4 mi
9:53 PM56 °FFog.No wind87%30.05 "Hg4 mi
8:53 PM58 °FFog.No wind87%30.05 "Hg5 mi
7:53 PM59 °FClear.No wind84%30.04 "Hg5 mi
6:53 PM60 °FClear.No wind83%30.04 "Hg6 mi
5:53 PM61 °FClear.No wind81%30.03 "Hg6 mi
4:53 PM64 °FClear.No wind73%30.03 "Hg7 mi
Weather by CustomWeather, © 2014

See weather overviewHow to use our weather pages